Miscellaneous Local Product
Issued by NWS North Platte, NE

Home | Current Version | Previous Version | Text Only | Print | Product List | Glossary On
Versions: 1 2 3 4 5 6 7 8 9 10 11 12 13 14 15 16 17 18 19 20 21 22 23 24 25 26 27 28 29 30 31 32 33 34 35 36 37 38 39 40 41 42 43 44 45 46 47 48 49 50
000
AXUS43 KLBF 292110
MISLBF


WESTERN AND NORTH CENTRAL NEBRASKA HOURLY WEATHER ROUNDUP
NATIONAL WEATHER SERVICE NORTH PLATTE NE
400 PM CDT TUE JUL 29 2014

***STATIONS NOT REPORTING VARIABLES SUCH AS SKY/WEATHER OR
PRESSURE ARE PROVIDED BY THE NEBRASKA DEPARTMENT OF
ROADS...RAWS...AND APRS NETWORKS...AND ARE NOT UNDER
NATIONAL WEATHER SERVICE QUALITY CONTROL***

...OBSERVATIONS IN AND NEAR THE EASTERN PANHANDLE OF NEBRASKA...

CITY           SKY/WX    TMP DP  RH WIND       PRES   REMARKS
PINE RIDGE     CLOUDY    69  61  75 NE6       30.25F
CHADRON        PTSUNNY   75  58  55 NE17      30.21F
ALLIANCE       PTSUNNY   80  56  43 E14       30.19F
SIDNEY         PTSUNNY   83  56  39 SE12G22   30.19F
WHITECLAY        N/A     70  58  64 N5          N/A
RUSHVILLE        N/A     73  53  49 E18         N/A
GORDON           N/A     74  58  55 NE8         N/A
CRESCENT LAKE    N/A     80  58  46 E8G17       N/A
LISCO            N/A     87  54  32 E9          N/A
BIG SPRINGS      N/A     82  65  55 SE8         N/A
$$

...OBSERVATIONS IN NORTH CENTRAL NEBRASKA...

CITY           SKY/WX    TMP DP  RH WIND       PRES   REMARKS
VALENTINE      CLOUDY    76  52  43 N7        30.21F
THEDFORD       PTSUNNY   80  58  47 E3        30.21S
AINSWORTH      CLOUDY    74  55  51 NE7       30.21F
O`NEILL        CLOUDY    77  49  36 W3        30.19F
ORD            PTSUNNY   77  57  50 CALM      30.17F
BROKEN BOW     PTSUNNY   79  58  48 CALM      30.18F
BROWNLEE         N/A     80  51  35 NE5         N/A
SPRINGVIEW       N/A     77  54  44 CALM        N/A
DUNNING          N/A     81  60  49 CALM        N/A
ROSE             N/A     80  59  49 CALM        N/A
NEWPORT          N/A     77  56  48 CALM        N/A
SARGENT          N/A     78  59  51 CALM        N/A
COMSTOCK         N/A     83  63  51 E5          N/A
CHAMBERS         N/A     82  55  39 W3          N/A
EWING            N/A     77  56  48 CALM        N/A
$$

...OBSERVATIONS IN SOUTHWEST NEBRASKA AND FAR NORTHEAST COLORADO...

CITY           SKY/WX    TMP DP  RH WIND       PRES   REMARKS
WRAY             N/A     89  51  26 E14G23    30.12F
HOLYOKE        FAIR      86  59  39 E14       30.16S
IMPERIAL       MOSUNNY   83  59  44 E10       30.15F
OGALLALA       MOSUNNY   81  59  47 E7        30.16S
NORTH PLATTE   SUNNY     82  58  43 E10G20    30.16F
MCCOOK         MOSUNNY   85  59  41 E13G18    30.13F
LEXINGTON      SUNNY     81  61  50 E12       30.17F
PAXTON           N/A     80  65  61 E5          N/A
SUTHERLAND       N/A     85  65  51 CALM        N/A
BRADY            N/A     79  61  53 N5G16       N/A
CALLAWAY         N/A     80  67  65 E6          N/A
$$

...SOME WEATHER OBSERVATIONS FROM AROUND THE REGION...

CITY           SKY/WX    TMP DP  RH WIND       PRES   REMARKS
DENVER         TSTM      66  58  75 SE18G25   30.19F
LARAMIE        CLOUDY    61  51  70 SE13      30.33R
CHEYENNE       LGT RAIN  63  58  83 CALM      30.30R
SCOTTSBLUFF    MOSUNNY   84  60  44 SE6       30.17F
RAPID CITY     CLOUDY    71  57  61 SE9       30.24F
PIERRE         MOSUNNY   82  51  34 VRB7      30.16F
WINNER         FAIR      81  47  30 MISG      30.19F
SIOUX FALLS    MOSUNNY   76  52  43 NW8       30.17F
OMAHA          PTSUNNY   79  52  38 NW10      30.15F
GRAND ISLAND   SUNNY     77  58  51 E5        30.18F
KANSAS CITY    PTSUNNY   81  58  45 VRB3      30.14F
WICHITA        MOSUNNY   88  61  40 E9        30.10F
HAYS           MOSUNNY   88  57  35 E5        30.11F
LIBERAL        CLOUDY    72  63  73 SE13      30.17F
GOODLAND       MOSUNNY   85  59  41 SE14      30.14F
$$



USA.gov is the U.S. government's official web portal to all federal, state and local government web resources and services.